Wetbulb
57.35 57.45 57.46 57.86 58.21 58.35 58.11 58.10 58.13 58.48 58.72 59.00 59.44 59.68 59.60 59.93 58.97 58.30 53.36 57.90 59.47 63.85 63.72 57.37 57.56 56.83 55.65 52.05 49.70 48.16 46.14 42.91 43.70 44.61 46.84 49.19 49.68 51.16 51.62 51.30 52.21 52.79 52.92 54.87 55.97
56.67 56.65 56.70 57.04 57.52 57.62 57.67 57.99 58.20 58.15 58.63 58.87 59.09 59.24 59.42 59.79 57.94 54.65 61.72 64.41 64.14 64.10 57.65 55.69 54.53 55.03 52.83 50.81 50.04 48.81 46.00 43.43 45.47 47.22 49.24 49.99 48.87 50.82 50.77 51.67 51.32 52.32 53.98 55.35 55.86
55.73 56.01 56.01 56.09 56.69 57.29 57.14 57.33 57.71 58.16 58.43 58.61 58.82 59.00 59.13 59.70 53.06 53.87 66.64 66.17 64.31 62.78 58.68 57.00 54.96 53.14 50.57 51.33 49.97 46.12 46.11 45.92 46.67 48.29 50.41 50.21 50.39 50.73 50.65 50.24 51.62 51.37 53.16 54.65 54.93
55.12 55.12 55.23 55.49 55.85 56.16 56.38 56.84 57.23 57.79 58.09 57.97 58.44 58.93 59.36 58.61 45.11 54.97 68.01 66.41 64.51 61.09 57.90 54.69 53.45 50.98 49.43 48.51 49.64 47.75 48.26 48.57 50.62 51.10 49.98 49.51 51.15 50.29 50.31 50.97 53.42 52.88 53.17 54.58 56.06
54.76 54.64 54.63 54.80 55.14 55.59 56.08 56.29 56.78 56.86 57.06 57.35 58.11 59.12 58.36 51.86 51.72 59.36 67.98 65.59 60.28 58.65 55.86 53.84 51.97 50.38 47.63 48.63 49.10 48.23 48.80 50.03 50.86 50.08 49.79 49.99 49.38 49.83 51.10 55.18 56.74 57.04 56.74 56.23 56.98
54.83 54.81 54.22 54.26 54.70 55.42 55.85 56.01 56.05 56.25 56.46 57.24 58.32 59.22 54.04 47.89 56.15 59.21 59.36 57.99 57.54 57.16 55.82 54.73 52.78 52.38 49.60 48.32 48.09 48.80 48.92 49.65 49.74 50.73 50.43 49.60 49.07 50.69 52.29 55.67 55.55 55.66 55.33 55.98 56.05
54.44 54.23 54.11 54.08 54.12 54.83 55.51 55.60 55.46 55.76 56.49 57.34 58.82 58.11 52.98 51.87 58.21 58.88 59.00 57.03 57.53 57.31 54.28 55.02 54.77 52.33 50.94 48.35 49.84 48.99 48.05 49.39 49.94 50.22 50.22 50.46 48.23 49.61 52.69 54.89 53.95 54.23 54.88 55.59 56.05
53.99 53.86 53.84 53.80 53.95 54.42 55.00 55.01 55.52 56.38 56.66 57.74 58.84 56.94 52.99 57.05 59.04 58.98 58.69 56.62 57.40 57.90 56.67 56.35 55.28 53.06 51.20 51.13 49.77 47.52 47.16 45.57 48.64 49.85 50.17 50.30 45.32 50.38 53.53 53.98 52.88 53.46 53.97 54.84 55.75
53.66 53.36 53.47 53.14 53.55 54.21 54.44 54.67 57.47 57.26 57.99 58.95 57.47 55.34 52.11 59.57 55.92 55.15 57.45 53.66 53.60 54.01 54.51 55.00 54.17 50.52 50.74 48.04 47.24 46.79 43.50 43.43 45.34 48.93 49.44 49.13 45.98 50.74 53.06 53.43 52.39 53.17 53.61 54.29 55.32
53.31 52.76 52.84 53.25 53.20 53.77 53.88 54.65 58.36 58.59 58.57 58.48 57.06 52.88 54.97 51.88 55.83 53.82 55.32 54.15 52.69 52.88 52.54 52.08 50.76 49.37 48.58 48.07 42.12 42.76 43.45 44.04 43.45 47.40 48.37 46.86 47.55 50.80 52.21 52.21 51.80 52.89 53.41 54.00 54.55
53.10 52.72 52.72 52.96 53.46 53.32 53.35 54.21 53.49 51.85 53.57 50.36 50.42 50.46 51.45 55.17 56.23 53.38 53.89 53.23 53.61 52.51 47.97 49.21 47.28 44.40 45.95 46.56 46.37 45.69 44.33 43.72 46.40 47.76 46.49 46.30 47.03 50.15 51.92 51.62 51.90 52.30 52.97 53.57 54.16
52.91 52.70 52.86 52.80 53.26 53.53 52.61 53.85 52.45 52.93 49.72 51.50 51.00 51.48 53.34 54.93 51.13 53.00 54.22 50.27 50.04 46.65 48.27 47.04 44.12 47.25 47.68 46.45 44.96 44.94 43.87 43.77 46.21 47.30 46.59 46.42 45.82 49.84 51.29 51.04 51.86 52.05 52.69 53.32 54.16
52.18 52.09 52.63 52.99 53.12 52.35 53.53 53.27 54.69 53.35 49.58 50.06 51.98 51.86 52.74 53.98 50.44 50.17 51.99 50.02 47.91 45.89 46.11 44.31 45.36 47.75 45.89 45.68 44.51 44.44 43.70 43.41 43.25 45.49 46.74 45.37 44.42 47.19 50.51 51.56 52.19 52.83 53.46 53.92 53.79
51.67 51.91 52.22 52.35 51.56 50.28 53.55 54.24 53.81 54.39 48.08 48.55 50.80 50.65 50.66 51.18 48.42 52.15 52.61 50.70 48.00 45.38 45.69 45.00 47.32 45.54 46.14 44.55 45.31 42.34 45.75 45.02 44.42 43.65 40.32 45.48 38.62 43.88 48.79 49.70 50.66 51.77 52.49 52.67 53.57
51.46 51.99 51.88 52.34 50.38 52.86 53.89 54.45 54.72 57.28 37.23 49.07 48.40 53.08 51.19 48.90 49.34 51.17 53.01 51.49 45.87 45.95 46.36 42.73 44.58 44.22 43.43 43.20 45.49 44.10 46.97 45.76 44.96 43.89 42.36 41.60 40.71 43.89 47.54 47.40 48.70 51.10 51.62 52.30 53.57
51.26 51.53 51.54 51.69 51.16 53.87 54.49 54.31 57.59 47.68 36.55 45.64 48.50 47.29 48.52 49.78 49.08 50.63 50.72 51.96 49.77 46.53 45.98 44.21 46.99 46.14 44.91 45.59 45.92 47.18 46.26 44.50 43.17 42.00 37.72 40.17 40.73 41.72 45.37 47.07 48.60 51.22 51.67 52.15 52.82
51.01 50.96 50.93 52.92 52.09 53.47 54.27 55.27 45.51 41.24 47.27 43.65 44.26 46.79 46.68 46.02 46.79 47.02 46.02 45.65 44.10 40.66 40.35 43.25 43.49 45.87 46.41 44.33 46.26 47.51 44.39 38.01 35.73 37.42 35.82 40.70 40.08 42.77 46.54 49.34 49.45 49.82 51.17 52.11 52.93
49.63 49.59 51.80 54.15 55.72 55.00 54.86 50.10 39.30 43.10 43.47 47.06 45.69 45.85 43.95 45.61 45.26 45.43 44.26 43.21 44.79 43.69 41.13 38.60 36.59 42.98 46.28 44.53 43.79 43.81 43.76 39.47 30.93 33.62 36.42 41.34 37.18 43.72 49.30 51.16 51.32 51.56 52.15 52.94 53.10
48.31 52.54 54.92 56.90 55.68 53.76 52.10 42.70 42.50 44.44 46.12 44.45 44.20 42.16 42.50 44.56 44.99 44.85 43.91 43.24 44.67 44.99 40.61 39.88 38.93 44.44 45.20 46.26 47.70 44.08 42.46 44.28 38.39 36.51 35.73 39.65 41.46 45.84 48.44 49.34 50.72 50.22 51.01 51.46 52.61
45.94 50.24 54.76 55.68 55.70 54.68 48.89 41.50 44.59 47.39 46.98 45.61 40.02 42.68 39.99 42.07 42.11 43.83 43.24 45.54 44.53 45.73 46.35 42.53 37.56 42.45 44.39 48.18 48.44 46.59 46.95 40.08 41.20 32.32 30.26 36.71 37.55 39.97 44.46 46.77 48.26 48.60 49.46 51.05 52.17
47.95 49.17 55.69 54.53 54.66 51.77 45.69 44.58 45.93 48.32 48.53 44.71 42.35 42.15 42.54 41.87 42.84 42.76 43.10 45.59 46.85 45.22 46.07 44.23 41.40 41.22 42.69 43.42 42.55 44.09 43.15 42.20 41.65 40.03 34.26 31.65 37.17 46.15 46.40 48.06 47.32 48.79 50.09 50.71 51.42
45.74 43.20 53.60 54.48 49.06 46.09 46.52 47.08 45.66 47.54 49.23 47.10 46.59 45.03 43.75 43.51 42.61 42.89 43.03 45.57 48.19 47.29 43.24 43.98 42.18 38.45 38.84 44.08 45.23 45.65 43.50 42.55 39.01 34.78 38.54 36.45 37.68 48.66 49.73 49.45 49.09 49.26 50.18 51.39 52.27
44.57 45.04 54.80 53.53 44.64 45.40 45.83 46.54 47.96 46.60 46.68 45.92 45.21 46.30 45.95 44.31 41.25 43.90 45.26 48.36 48.25 46.90 44.50 45.11 40.61 36.25 37.48 42.07 44.95 43.26 44.34 43.99 43.16 41.55 38.09 34.02 38.34 47.79 48.93 49.97 49.86 49.44 50.65 51.19 51.80
46.83 43.86 49.07 48.16 46.28 45.04 44.03 44.68 45.23 48.42 46.82 46.92 46.06 47.01 45.30 43.77 45.25 43.23 43.64 46.89 48.28 47.55 49.21 47.81 41.61 39.78 37.76 38.24 41.46 39.74 42.06 43.60 42.48 38.59 39.10 39.09 41.45 46.31 48.15 48.15 49.11 50.01 50.87 51.12 51.42
46.89 43.59 43.81 42.72 44.57 44.41 44.60 44.09 43.54 44.30 47.03 47.72 45.51 46.28 45.36 42.30 42.56 42.34 44.25 45.79 46.65 49.56 46.67 46.74 40.67 41.03 41.99 42.06 41.92 41.67 42.06 43.06 41.14 42.70 39.41 42.35 42.34 46.05 48.10 48.41 49.03 50.04 50.77 50.30 50.47
44.12 44.25 44.34 43.12 42.17 43.16 42.05 42.95 42.85 44.36 45.20 44.08 44.60 45.86 45.67 43.75 44.48 42.22 44.59 44.29 44.19 46.68 46.21 45.36 40.65 41.58 38.87 41.96 42.65 41.02 43.47 43.66 44.34 44.08 43.50 44.19 43.65 49.27 50.10 50.25 49.82 49.62 49.86 49.30 50.06
43.70 44.59 43.87 41.73 41.84 41.93 42.66 42.61 42.71 43.37 45.69 46.29 46.56 45.56 44.27 45.82 47.63 48.82 48.63 48.57 48.58 46.42 45.48 44.72 42.26 39.40 36.62 41.67 41.87 39.09 43.29 44.58 45.16 46.25 45.51 41.23 45.57 49.54 48.84 49.22 49.36 49.61 50.13 49.58 50.20
MSLP
1017.68 1017.34 1017.02 1016.65 1016.31 1016.02 1015.72 1015.42 1015.14 1014.87 1014.58 1014.23 1013.87 1013.40 1013.10 1012.88 1012.48 1012.37 1011.53 1011.36 1011.31 1011.31 1011.23 1011.03 1010.89 1010.96 1010.86 1010.97 1011.29 1011.49 1011.02 1010.89 1010.76 1010.52 1010.27 1010.14 1009.62 1009.47 1009.44 1009.00 1008.77 1008.66 1008.67 1008.77 1008.87
1017.80 1017.40 1017.05 1016.74 1016.38 1016.04 1015.70 1015.36 1015.06 1014.77 1014.50 1014.23 1013.93 1013.48 1013.08 1012.77 1012.05 1011.48 1011.17 1011.20 1011.28 1011.22 1010.98 1010.79 1010.76 1010.81 1010.84 1011.14 1011.29 1011.06 1011.08 1011.15 1011.35 1010.94 1010.56 1010.36 1010.16 1009.79 1009.48 1009.16 1009.00 1009.05 1009.16 1009.40 1009.34
1017.92 1017.46 1017.05 1016.71 1016.38 1015.99 1015.61 1015.25 1014.92 1014.62 1014.37 1014.13 1013.88 1013.54 1013.05 1012.70 1011.92 1011.28 1011.05 1011.18 1011.30 1011.25 1011.17 1011.08 1010.98 1010.75 1010.87 1011.23 1011.50 1011.47 1011.05 1011.36 1011.18 1011.01 1010.93 1010.56 1010.24 1010.09 1009.67 1009.46 1009.90 1009.71 1009.55 1009.85 1010.06
1017.95 1017.49 1017.08 1016.64 1016.24 1015.92 1015.61 1015.20 1014.82 1014.49 1014.19 1013.98 1013.71 1013.46 1013.01 1012.57 1011.88 1011.20 1011.16 1011.15 1011.28 1011.25 1011.15 1010.97 1010.76 1010.75 1011.07 1011.21 1011.69 1011.46 1011.47 1011.30 1011.01 1011.10 1011.07 1010.67 1010.45 1010.38 1010.73 1010.90 1010.80 1010.38 1010.45 1010.56 1010.52
1017.94 1017.48 1016.98 1016.52 1016.10 1015.71 1015.40 1015.10 1014.72 1014.37 1014.07 1013.88 1013.54 1013.25 1012.89 1012.13 1011.27 1011.22 1011.20 1011.14 1011.16 1011.18 1011.10 1010.99 1010.92 1011.10 1011.22 1011.50 1011.59 1011.43 1011.40 1011.22 1011.05 1011.11 1010.94 1010.98 1010.86 1010.96 1011.44 1011.69 1011.28 1010.98 1011.07 1011.32 1011.56
1017.80 1017.35 1016.87 1016.36 1015.88 1015.48 1015.08 1014.78 1014.49 1014.22 1013.95 1013.75 1013.50 1013.22 1012.66 1011.63 1010.86 1010.98 1011.02 1011.07 1011.02 1011.06 1011.12 1011.08 1011.04 1011.24 1011.46 1011.69 1011.61 1011.74 1011.51 1011.10 1011.08 1010.73 1010.72 1010.76 1011.12 1011.22 1012.13 1012.21 1011.74 1011.68 1011.84 1012.11 1012.20
1017.80 1017.20 1016.65 1016.16 1015.65 1015.23 1014.75 1014.43 1014.11 1013.90 1013.78 1013.61 1013.44 1013.08 1012.31 1011.29 1010.84 1010.93 1010.86 1010.92 1011.08 1011.08 1011.05 1011.19 1011.19 1011.22 1011.57 1011.62 1011.93 1011.70 1011.17 1010.73 1010.70 1010.57 1010.43 1010.83 1011.20 1012.25 1012.87 1012.75 1012.46 1012.53 1012.64 1012.67 1012.74
1017.68 1017.11 1016.50 1015.92 1015.44 1014.92 1014.40 1013.98 1013.57 1013.35 1013.48 1013.46 1013.36 1012.93 1011.61 1010.74 1010.77 1010.63 1010.83 1010.73 1011.08 1011.23 1011.24 1011.28 1011.32 1011.42 1011.61 1011.92 1011.82 1011.38 1011.20 1010.50 1010.69 1010.58 1010.69 1010.64 1011.65 1012.95 1013.29 1013.03 1012.99 1012.99 1012.97 1012.97 1013.04
1017.56 1016.89 1016.36 1015.77 1015.19 1014.63 1014.14 1013.69 1013.29 1013.27 1013.32 1013.39 1013.31 1012.56 1011.16 1010.70 1010.55 1010.50 1010.64 1010.62 1010.86 1011.16 1011.34 1011.37 1011.41 1011.83 1011.88 1011.61 1011.46 1011.42 1010.87 1010.85 1010.65 1010.93 1010.80 1010.92 1011.70 1013.11 1013.56 1013.40 1013.34 1013.37 1013.26 1013.19 1013.13
1017.53 1016.70 1016.00 1015.38 1014.92 1014.43 1013.91 1013.63 1013.50 1013.28 1013.42 1013.33 1012.96 1012.56 1011.04 1010.83 1010.52 1010.36 1010.74 1010.82 1010.97 1011.22 1011.31 1011.52 1011.76 1011.86 1011.94 1011.59 1011.23 1011.32 1011.16 1011.03 1010.94 1011.04 1010.98 1011.24 1011.85 1012.88 1013.54 1013.55 1013.54 1013.56 1013.46 1013.32 1013.28
1017.38 1016.50 1015.80 1015.04 1014.59 1014.25 1013.67 1013.48 1013.78 1013.38 1012.92 1012.61 1012.26 1011.72 1011.13 1010.65 1010.66 1010.42 1010.59 1010.77 1011.04 1011.33 1011.55 1012.01 1011.70 1011.74 1011.86 1011.98 1011.89 1011.80 1011.62 1011.31 1011.02 1011.16 1011.28 1011.30 1011.78 1012.56 1013.31 1013.48 1013.48 1013.40 1013.42 1013.46 1013.40
1017.24 1016.30 1015.50 1014.77 1014.22 1013.91 1013.76 1013.08 1013.25 1013.25 1012.64 1012.01 1011.76 1011.43 1011.08 1010.86 1010.70 1010.60 1010.57 1010.84 1011.20 1011.59 1011.99 1012.12 1011.92 1012.13 1012.12 1012.20 1012.22 1012.08 1011.76 1011.53 1011.41 1011.43 1011.62 1011.35 1011.70 1012.57 1013.14 1013.42 1013.62 1013.60 1013.50 1013.44 1013.16
1017.08 1016.16 1015.26 1014.36 1013.78 1013.48 1013.35 1013.33 1013.10 1012.83 1012.53 1011.68 1011.18 1010.81 1010.76 1010.84 1010.86 1010.89 1010.85 1011.20 1011.52 1011.77 1012.17 1012.18 1012.56 1012.22 1012.09 1012.27 1012.32 1012.20 1011.90 1011.86 1011.83 1011.80 1011.88 1011.97 1011.88 1012.50 1013.13 1013.47 1013.65 1013.72 1013.82 1013.62 1013.35
1016.92 1016.04 1015.14 1014.17 1013.77 1013.95 1013.37 1013.16 1012.92 1012.69 1012.20 1011.69 1010.85 1010.52 1010.66 1010.73 1011.12 1011.20 1011.22 1011.39 1011.71 1012.18 1012.42 1012.58 1012.80 1012.54 1012.35 1012.43 1012.57 1012.30 1012.53 1012.42 1012.26 1012.15 1011.80 1012.45 1011.78 1012.08 1012.62 1013.04 1013.41 1013.51 1013.46 1013.34 1013.12
1016.96 1016.15 1015.44 1014.80 1014.48 1013.85 1013.58 1013.12 1012.74 1012.60 1011.97 1011.55 1010.66 1010.40 1010.63 1010.91 1011.34 1011.39 1011.70 1011.41 1012.13 1012.61 1012.86 1013.24 1013.10 1012.94 1012.76 1013.03 1012.99 1012.72 1012.85 1012.78 1012.75 1012.57 1012.73 1012.70 1012.51 1011.81 1012.67 1012.71 1012.96 1013.09 1012.95 1012.75 1012.65
1016.78 1016.09 1015.43 1014.83 1014.62 1013.49 1013.32 1012.99 1012.74 1012.60 1011.74 1011.42 1010.90 1010.86 1010.94 1011.43 1011.84 1011.90 1011.95 1012.03 1012.84 1013.03 1013.43 1013.62 1013.72 1013.58 1013.51 1013.26 1013.30 1013.20 1013.12 1013.16 1013.41 1013.16 1012.97 1013.20 1012.97 1011.76 1012.30 1012.66 1012.89 1012.86 1012.66 1012.47 1012.20
1016.39 1015.60 1015.24 1014.68 1013.93 1013.58 1013.26 1012.76 1012.81 1012.26 1012.12 1011.97 1011.68 1011.64 1011.84 1012.28 1012.53 1012.67 1012.91 1013.05 1013.36 1013.53 1013.75 1013.91 1013.85 1013.91 1013.85 1013.35 1013.47 1013.28 1013.32 1013.40 1013.41 1013.29 1013.24 1013.78 1013.25 1012.35 1012.64 1012.87 1013.02 1012.84 1012.44 1012.17 1011.98
1016.16 1015.29 1014.74 1014.06 1013.61 1013.61 1013.04 1012.99 1012.56 1012.24 1012.08 1012.25 1012.24 1012.38 1012.60 1013.01 1013.32 1013.37 1013.51 1013.83 1014.19 1014.20 1014.32 1014.32 1014.10 1014.15 1014.10 1014.12 1014.06 1014.12 1014.40 1014.84 1014.90 1014.62 1014.10 1013.98 1013.11 1012.45 1012.82 1013.00 1012.92 1012.77 1012.24 1011.72 1011.36
1015.96 1014.79 1014.10 1013.50 1013.43 1013.43 1013.07 1012.79 1012.20 1012.22 1012.10 1012.30 1012.68 1012.86 1013.25 1013.45 1013.50 1013.63 1013.84 1014.14 1014.34 1014.41 1014.50 1014.66 1014.54 1014.61 1014.52 1014.43 1014.56 1014.40 1014.92 1015.87 1016.02 1016.41 1015.61 1013.92 1013.27 1012.68 1012.88 1012.84 1012.47 1012.07 1011.79 1011.53 1011.27
1017.04 1015.58 1013.82 1013.37 1013.27 1013.12 1012.97 1012.76 1012.49 1012.35 1012.28 1012.44 1012.68 1013.27 1013.45 1013.72 1013.80 1013.84 1014.10 1014.58 1014.64 1014.73 1014.79 1015.13 1015.08 1014.86 1014.68 1014.62 1014.81 1014.52 1015.53 1015.93 1016.27 1016.49 1015.63 1013.99 1013.43 1012.72 1012.58 1012.53 1012.30 1011.89 1011.53 1011.19 1010.95
1017.13 1015.62 1013.54 1013.22 1013.30 1013.05 1012.87 1012.64 1012.41 1012.21 1012.22 1012.64 1012.97 1013.41 1013.70 1013.96 1014.09 1014.10 1014.41 1014.79 1014.75 1014.87 1014.94 1015.20 1015.50 1015.11 1014.99 1014.58 1014.56 1014.96 1015.21 1016.04 1016.68 1016.96 1016.57 1015.32 1013.18 1012.84 1012.63 1012.57 1012.36 1011.88 1011.32 1010.90 1010.55
1017.99 1016.06 1013.69 1013.32 1013.43 1013.86 1013.05 1012.74 1012.37 1012.17 1012.33 1012.66 1013.05 1013.45 1013.84 1014.23 1014.30 1014.34 1014.36 1014.50 1014.89 1015.00 1015.03 1015.64 1015.70 1015.12 1014.91 1014.88 1015.13 1015.04 1015.27 1015.81 1016.30 1016.95 1016.94 1016.30 1013.80 1012.93 1012.63 1012.52 1012.28 1011.72 1011.21 1010.85 1010.49
1018.72 1016.91 1014.10 1013.66 1013.62 1013.71 1013.52 1012.88 1012.44 1012.25 1012.24 1012.58 1013.00 1013.37 1013.86 1014.12 1014.52 1014.50 1014.51 1014.84 1015.00 1015.07 1015.16 1015.60 1015.82 1015.28 1014.90 1015.21 1015.09 1014.92 1015.21 1015.70 1016.22 1016.66 1016.04 1015.74 1013.41 1012.74 1012.60 1012.18 1011.93 1011.56 1011.15 1010.66 1010.30
1019.35 1017.54 1015.46 1014.81 1015.08 1014.23 1013.83 1013.32 1012.84 1012.44 1012.42 1012.60 1013.01 1013.46 1014.05 1014.26 1014.46 1014.45 1014.58 1014.85 1015.07 1015.23 1015.30 1015.49 1015.84 1015.37 1015.05 1014.88 1015.15 1014.92 1014.84 1015.24 1015.70 1015.70 1015.00 1014.41 1012.92 1012.21 1012.05 1011.90 1011.65 1011.30 1010.99 1010.68 1010.24
1019.71 1018.54 1018.26 1016.62 1015.82 1015.38 1014.61 1013.97 1013.41 1013.07 1012.91 1012.88 1013.22 1013.25 1013.72 1014.22 1014.49 1014.48 1014.61 1014.82 1015.06 1015.35 1015.65 1015.78 1015.44 1015.54 1015.12 1014.88 1015.05 1014.65 1014.31 1014.30 1014.67 1014.46 1014.37 1013.10 1012.77 1012.07 1011.89 1011.76 1011.65 1011.41 1010.96 1010.52 1010.12
1020.36 1019.29 1018.66 1017.67 1016.84 1016.06 1015.48 1014.55 1013.94 1013.72 1013.51 1013.24 1013.16 1013.51 1013.82 1013.97 1014.02 1014.30 1014.60 1014.92 1014.94 1015.48 1015.66 1016.15 1015.62 1015.69 1014.83 1014.38 1014.29 1013.94 1013.43 1013.43 1013.53 1013.53 1013.47 1012.99 1012.29 1011.62 1011.74 1011.71 1011.32 1011.05 1010.68 1010.39 1010.06
1020.94 1020.29 1019.38 1018.01 1017.09 1016.50 1015.80 1015.19 1014.75 1014.58 1014.07 1013.68 1013.47 1013.82 1014.17 1014.25 1014.28 1014.27 1014.57 1014.69 1014.72 1015.00 1015.37 1015.90 1015.84 1015.70 1014.46 1014.27 1013.78 1012.88 1012.18 1012.50 1012.55 1012.68 1012.60 1012.16 1011.71 1011.48 1011.38 1011.27 1011.12 1010.78 1010.59 1010.35 1010.14
Wind_Speed
16 15 14 13 11 11 11 12 11 11 12 12 13 14 14 13 4 3 3 2 2 1 2 1 4 4 2 4 3 1 2 4 5 4 3 2 4 2 3 5 5 3 1 3 3
17 16 15 14 12 11 11 11 12 12 11 11 11 12 13 12 2 3 2 6 3 3 3 7 5 2 4 3 3 1 1 3 1 1 1 3 2 5 4 7 1 4 2 3 4
18 17 17 15 14 12 12 12 12 12 12 11 12 11 12 9 1 2 5 8 5 3 3 2 2 2 4 1 3 2 3 5 5 5 2 2 4 3 4 3 8 11 8 10 6
18 18 18 17 16 14 13 13 12 12 12 11 11 11 12 2 3 2 7 9 7 2 1 4 6 3 3 3 2 2 1 3 2 3 2 3 2 2 6 8 11 7 6 9 12
18 19 19 17 17 16 14 13 12 12 12 11 11 10 2 1 2 3 7 6 3 1 3 3 6 2 4 1 1 1 1 4 3 7 7 3 2 5 10 8 11 14 16 16 14
19 19 19 18 18 16 15 13 11 10 10 9 9 10 1 4 2 5 3 2 1 2 2 2 2 2 5 2 1 1 4 7 1 3 1 1 5 1 8 6 14 15 15 14 16
20 20 19 19 19 17 15 13 11 10 9 6 6 2 1 1 2 3 1 1 1 0 2 1 2 1 2 2 2 2 3 1 2 4 2 1 6 9 4 6 13 12 11 12 13
21 20 20 20 20 19 18 16 12 5 5 4 3 1 2 1 3 6 1 0 3 2 1 1 3 5 2 2 1 1 1 3 5 4 3 4 4 5 5 6 11 11 10 10 12
22 22 21 21 21 20 17 15 4 7 3 3 1 2 2 2 2 2 1 0 3 3 4 6 3 4 0 2 3 3 4 1 0 1 3 5 2 4 3 6 9 9 10 10 11
23 23 23 21 21 18 16 2 5 5 2 2 1 2 1 2 3 2 2 2 4 4 3 4 4 2 2 2 1 1 1 2 2 1 2 1 3 5 3 5 7 8 10 11 12
24 25 23 22 20 15 6 3 1 2 1 2 1 1 3 4 1 1 3 3 2 6 3 3 3 6 5 4 3 3 2 5 5 1 4 2 5 8 5 3 8 10 11 12 13
25 26 25 23 20 12 2 4 3 2 2 1 2 4 4 2 2 3 1 2 3 4 2 1 7 8 5 1 4 5 4 3 6 4 4 4 7 7 5 4 6 8 11 13 15
25 26 26 23 21 1 3 4 6 4 1 3 3 2 0 4 2 3 1 2 3 2 4 3 6 9 2 2 1 2 2 2 5 4 3 4 3 8 7 4 2 5 7 10 13
26 26 25 25 1 3 2 6 6 4 2 1 1 2 3 2 4 3 3 1 3 3 1 2 5 8 9 7 5 2 3 5 6 6 10 3 4 5 11 7 2 6 9 10 12
26 25 21 11 2 1 5 8 0 2 4 2 2 1 3 2 2 6 3 3 3 4 3 4 5 10 8 6 4 3 7 4 4 5 4 2 3 3 3 6 2 9 12 14 13
29 24 17 0 2 2 7 3 1 2 3 2 2 4 3 6 3 3 5 6 1 3 5 3 2 3 5 5 2 8 3 1 1 2 3 3 5 2 1 2 3 9 13 14 15
31 27 8 0 2 6 5 1 1 2 1 2 2 2 5 5 4 4 5 8 5 1 5 4 3 2 3 4 3 8 5 3 2 1 2 1 6 3 2 1 5 10 14 14 14
33 21 2 3 5 5 0 2 3 2 1 3 2 5 3 1 3 2 4 4 3 2 3 5 3 4 5 3 4 4 4 1 3 4 6 4 4 3 0 2 6 10 12 16 17
25 4 1 2 3 1 2 2 4 3 3 5 3 3 2 2 1 2 3 3 1 1 3 3 1 2 1 2 3 3 3 2 3 1 4 2 2 5 2 3 11 16 16 17 17
6 5 3 8 3 1 2 2 2 2 4 2 3 1 4 2 3 3 3 1 2 1 1 2 3 1 3 3 7 3 7 1 3 3 5 3 7 5 4 8 14 17 18 16 17
3 5 2 5 1 2 2 4 4 2 2 2 3 4 3 3 2 3 4 2 0 2 1 3 2 2 3 2 3 3 2 4 1 1 2 5 4 2 3 10 13 16 17 19 19
4 4 4 2 1 1 3 5 2 5 2 3 3 3 4 4 3 3 4 3 1 0 1 2 2 4 2 1 3 1 1 1 1 1 3 2 8 1 5 9 11 16 17 19 17
5 4 3 3 3 2 1 2 4 4 4 5 4 2 2 5 3 2 3 5 2 0 3 5 2 3 4 4 4 4 4 1 3 2 8 3 6 2 5 13 14 16 17 18 18
3 4 3 4 3 2 1 1 3 1 4 4 5 4 3 3 1 4 4 4 1 2 3 5 4 5 4 3 1 6 6 6 6 5 6 9 16 17 15 14 15 17 18 18 18
2 1 1 4 3 4 0 1 1 3 1 3 3 5 6 4 2 3 3 2 3 6 3 4 5 5 8 9 8 10 12 10 11 12 8 13 10 16 15 12 14 15 17 17 19
4 2 1 2 3 3 1 2 2 2 2 4 4 7 6 5 5 4 5 4 6 5 4 2 2 3 5 6 8 10 13 9 8 9 14 15 16 11 11 12 15 17 17 18 19
1 1 2 0 0 2 1 1 2 1 1 1 5 6 5 4 4 6 7 6 4 6 8 5 4 3 4 3 6 11 7 10 5 6 8 10 14 16 15 14 15 16 17 16 18
Wind_Direction
11 10 5 360 351 343 334 326 322 320 318 318 324 323 332 338 327 173 65 86 116 359 321 24 49 102 96 82 63 141 106 146 142 149 78 336 0 30 324 314 336 15 103 48 19
6 5 2 359 355 347 338 328 321 316 315 316 320 321 330 340 351 46 79 129 117 6 23 30 68 110 77 68 56 69 114 123 188 155 84 320 315 323 319 334 331 319 327 26 341
3 360 358 356 351 344 339 333 323 316 314 318 322 325 328 326 62 32 117 140 129 53 64 61 75 55 82 49 34 106 105 169 191 223 222 282 266 211 267 333 8 321 328 355 12
358 357 354 350 345 341 336 331 324 318 313 317 320 323 321 285 90 64 140 140 140 89 62 33 30 69 69 75 27 165 126 183 197 191 255 238 297 4 33 335 323 315 346 28 40
352 352 350 346 342 335 331 328 321 313 308 310 316 324 293 79 100 82 138 142 117 70 36 38 48 86 75 48 86 121 210 258 290 284 252 288 265 115 33 42 60 66 65 59 51
346 346 345 343 340 333 328 324 313 303 299 299 308 314 3 109 73 15 146 154 47 29 34 353 53 100 96 69 8 347 265 276 308 307 203 276 94 208 34 28 62 58 52 50 48
343 341 341 340 338 333 327 322 305 291 284 285 302 318 96 143 71 5 26 57 128 94 335 42 142 16 144 119 353 336 296 335 79 356 55 167 72 26 45 60 64 63 53 46 38
341 339 338 337 337 333 329 325 308 263 232 248 267 228 211 20 301 290 129 177 143 202 229 269 126 100 15 123 71 32 106 161 45 4 43 314 114 47 32 66 61 52 47 40 34
339 336 335 336 335 333 329 326 34 120 136 170 201 286 152 326 302 22 189 343 12 83 79 85 69 54 29 28 143 51 101 42 96 39 352 4 113 132 61 68 64 49 39 30 28
338 335 333 333 333 332 326 255 92 133 103 202 173 190 299 128 308 318 102 61 91 101 85 44 52 80 75 340 158 115 301 226 267 40 295 179 171 160 110 76 69 49 33 27 16
337 335 333 332 331 331 318 145 221 112 74 340 320 254 283 294 254 66 133 116 63 64 63 37 58 10 346 293 270 204 235 262 290 212 272 254 217 182 145 88 55 38 26 18 8
337 336 333 331 327 326 235 76 95 44 330 7 245 271 262 291 348 18 225 61 48 49 340 156 25 342 279 40 186 201 232 237 283 276 282 313 281 184 175 90 43 24 15 3 355
338 337 335 333 323 276 18 78 328 175 15 309 217 252 331 159 74 356 349 104 72 48 45 61 4 337 263 123 203 188 258 283 291 313 234 297 221 193 186 180 65 26 2 356 352
339 340 338 330 49 335 63 333 328 215 90 309 176 93 112 161 71 359 37 68 74 35 53 69 14 27 56 61 353 270 0 275 280 304 317 347 303 219 206 216 244 0 0 358 353
338 339 340 359 331 70 337 324 262 231 153 147 93 52 42 74 135 37 19 56 65 54 321 29 21 27 39 348 330 351 323 318 324 286 286 154 255 101 166 224 328 358 357 356 353
336 335 338 231 264 332 325 309 191 208 157 133 33 3 100 30 50 335 38 52 73 91 47 27 301 28 345 325 11 311 259 291 117 208 236 83 328 54 149 103 346 350 345 343 342
333 329 314 263 345 337 313 86 171 211 322 98 57 72 87 36 61 46 44 50 37 21 21 335 29 341 340 332 125 5 354 327 249 247 356 106 291 342 285 180 356 330 329 335 335
331 321 187 247 298 315 6 100 202 155 162 102 115 80 89 30 55 64 109 94 81 69 108 19 152 18 358 11 336 18 359 92 296 318 321 298 229 105 342 193 329 323 330 329 336
324 321 273 298 264 199 104 174 197 194 150 139 100 116 131 131 136 152 73 122 191 48 51 341 263 296 278 353 281 114 73 50 115 97 263 302 246 254 191 253 333 341 331 330 331
333 321 272 340 155 81 116 219 191 224 133 114 157 192 167 182 173 163 154 42 137 21 284 138 278 138 327 190 67 40 137 158 49 335 296 282 299 265 353 344 340 335 331 328 330
354 319 89 359 229 80 209 195 198 184 129 129 152 139 159 184 192 159 145 80 28 133 137 145 244 145 243 201 172 168 134 80 141 202 300 307 297 202 251 346 330 326 333 332 327
353 303 19 286 167 348 181 193 216 151 131 116 118 118 165 176 188 183 164 133 211 315 245 85 167 274 306 292 280 242 152 92 200 154 225 290 275 233 244 323 327 330 329 328 323
336 284 328 293 210 193 270 244 221 153 162 149 138 160 144 171 179 181 162 140 130 351 199 174 192 284 162 161 144 220 185 162 104 175 239 223 266 221 286 322 333 326 322 328 331
303 322 324 52 8 99 57 189 193 302 147 127 123 126 136 166 161 165 170 195 246 263 130 149 173 221 209 320 321 261 255 244 250 249 254 237 275 299 325 324 327 326 326 327 326
314 65 71 338 42 353 179 29 210 190 69 150 127 175 165 167 191 212 208 208 205 157 118 223 240 205 244 251 244 257 272 280 232 240 240 288 284 307 315 314 316 316 319 323 324
318 343 17 284 286 281 290 167 184 298 209 198 195 172 170 169 196 221 210 205 250 173 189 196 245 220 268 232 212 259 273 246 234 248 245 271 284 326 304 303 318 321 321 321 324
357 267 270 292 294 237 256 155 127 334 195 335 203 143 187 234 248 264 234 240 240 201 190 194 202 219 259 199 269 271 258 200 227 247 273 287 313 314 308 314 318 315 316 316 324